Torna al catalogo

SL-14 DEB

AttivoPO
NORAD 45319·DEBRIS·🇷🇺 Russia

Lanciato Aug 15, 1991 da Plesetsk Cosmodrome

Loading…

Prossimi Passaggi (prossime 24 ore)

TLE

AggiornatoSource: Space-Track

Epoca: Sep 14, 2026, 07:53 UTC

1 45319U 91056BH  26257.32848258  .00000724  00000-0  12900-2 0  9992
2 45319  82.5824  24.2904 0078617 348.0121  11.9141 13.39712112319181

Traccia SL-14 DEB in tempo reale con AllMySat

Download on the App Store